Location: Unspecified
(22.6800°N, 112.2000°E)
Time: 07:41:54
(UTC+08:00)

Courier 1B Rocket - Pass Details

Date: 06 August 2021
Orbit: 920 x 1202 km, 28.3° (Epoch: 22 September)

Event Time Altitude Azimuth Distance (km) Brightness Sun altitude
Exits shadow 02:53:41 38° 59° (ENE) 1,441 6.1 -38.3°
Drops below altitude 10° 02:57:48 10° 82° (E) 2,674 7.8 -37.7°
Sets 03:00:25 0° 87° (E) 3,592 8.5 -37.3°
